リニア彗星

209P/LINEAR (2019)

English version
Home page
Updated on May 13, 2024

---------------------------------------------------------------------

・ プロフィール

・ 写真集

・ 軌道要素

Epoch 2019 June 6.0 TT = JDT 2458640.5
T 2019 June 12.80670 TT                                 MPC
q   0.9675040            (2000.0)            P               Q
n   0.19341563     Peri.  152.50047     -0.78848290     +0.52378726
a   2.9612495      Node    62.77142     -0.60959080     -0.59578438
e   0.6732785      Incl.   21.25858     -0.08181544     -0.60884142
P   5.10
From 2371 observations 2003 Dec. 3-2014 Oct. 21, mean residual 0".4.

・ 星図

・ 光度変化

        m1 = 18.0 + 5 logΔ + 2.0 log r

---------------------------------------------------------------------

軌道要素はM.P.E.C. 2014-V27に掲載されたものです。
星図はステラナビゲータ Ver.10 (アストロアーツ) で作成したものです。
光度グラフはComet for Windowsで作成したものです。

---------------------------------------------------------------------

Copyright(C) Seiichi Yoshida (comet@aerith.net). All rights reserved.